Location: Peebles
(55.6412°N, 3.1714°W)
Time: 06:12:39
(UTC+01:00)

Altair 2 - Pass Details

Date: 10 July 2022
Orbit: 702 x 2529 km, 96.4° (Epoch: 10 August)

Event Time Altitude Azimuth Distance (km) Brightness Sun altitude
Rises 01:55:44 0° 91° (E) 5,244 11.9 -11.7°
Reaches altitude 10° 02:00:48 10° 73° (ENE) 3,878 11.5 -11.6°
Maximum altitude 02:05:22 15° 42° (NE) 3,114 11.5 -11.5°
Drops below altitude 10° 02:09:17 10° 10° (N) 3,199 12.3 -11.3°
Sets 02:12:48 0° 348° (NNW) 3,876 12.5 -11.2°
